Date_and_time,latitude,longitude,wind_speed,RelWindDirFrom,WindDirFrom,air_pressure,air_temperature,relative_humidity,Temp,platform_speed_wrt_ground,air_pressure_at_mean_sea_level,platform_orientation
2019-03-16 23:40,50.6304433333333,-96.98077,8.6,12.6,162,994.33,-3.9,89,0.80,0.0,1022.75,131.7
2019-03-16 23:50,50.630445,-96.9807683333333,9.0,11.8,156,994.35,-4.4,92,0.81,0.0,1022.82,131.7
2019-03-17 00:00,50.630445,-96.9807683333333,9.3,11.2,150,994.35,-4.6,92,0.81,0.0,1022.84,90.0
2019-03-17 00:00,50.630445,-96.9807666666667,8.5,8.5,146,994.31,-4.7,93,0.81,0.0,1022.80,311.7
2019-03-17 00:10,50.630445,-96.9807666666667,8.8,10.8,149,994.28,-4.8,94,0.80,0.0,1022.78,311.7
2019-03-17 00:20,50.6304466666667,-96.9807683333333,9.3,11.3,158,994.22,-4.9,95,0.79,0.0,1022.72,311.7
2019-03-17 00:30,50.6304483333333,-96.9807683333333,9.3,10.9,157,994.09,-5.0,95,0.79,0.0,1022.60,311.7
2019-03-17 00:40,50.6304483333333,-96.9807666666667,8.9,10.6,156,994.03,-5.0,95,0.79,0.0,1022.54,311.7
2019-03-17 00:50,50.63045,-96.9807666666667,9.9,11.8,161,993.86,-5.1,96,0.79,0.0,1022.38,311.7
2019-03-17 01:00,50.6304383333333,-96.980755,9.1,10.3,165,993.72,-5.1,96,0.79,0.0,1022.24,12.6
2019-03-17 01:10,50.630445,-96.9807583333333,8.0,9.9,160,993.71,-5.1,98,0.79,0.0,1022.22,12.6
2019-03-17 01:20,50.6304466666667,-96.9807566666667,8.4,10.0,150,993.61,-5.4,99,0.81,0.0,1022.13,12.6
2019-03-17 01:30,50.63045,-96.9807616666667,7.6,8.7,155,993.61,-5.5,99,0.80,0.0,1022.16,12.6
2019-03-17 01:40,50.63045,-96.9807633333333,7.6,9.1,158,993.60,-5.7,99,0.80,0.0,1022.17,12.6
2019-03-17 01:50,50.63045,-96.9807633333333,7.3,8.5,145,993.61,-5.9,99,0.80,0.0,1022.19,12.6
2019-03-17 02:00,50.63045,-96.9807633333333,8.2,10.1,152,993.50,-6.0,99,0.80,0.0,1022.10,360.0
2019-03-17 02:10,50.630465,-96.9807666666667,8.4,9.9,157,993.42,-6.0,99,0.80,0.0,1022.02,360.0
2019-03-17 02:20,50.6304583333333,-96.9807733333333,8.8,10.2,159,993.35,-6.0,99,0.80,0.0,1021.95,360.0
2019-03-17 02:30,50.6304583333333,-96.98078,8.7,10.2,154,993.33,-6.0,99,0.80,0.0,1021.93,360.0
2019-03-17 02:40,50.630455,-96.9807583333333,7.8,9.3,154,993.32,-6.1,99,0.79,0.0,1021.93,360.0
2019-03-17 02:50,50.6304483333333,-96.9807583333333,8.5,9.7,155,993.23,-6.1,99,0.79,0.0,1021.84,360.0
2019-03-17 03:00,50.63045,-96.98076,7.2,8.9,154,993.25,-6.1,99,0.79,0.0,1021.86,360.0
2019-03-17 03:10,50.63043,-96.9807766666667,6.3,7.2,147,993.27,-6.2,99,0.79,0.0,1021.89,360.0
2019-03-17 03:20,50.6304516666667,-96.98077,6.5,7.8,153,993.21,-6.1,99,0.79,0.0,1021.84,360.0
2019-03-17 03:30,50.6304533333333,-96.9807716666667,6.7,7.5,153,993.19,-6.3,99,0.79,0.0,1021.84,360.0
2019-03-17 03:40,50.6304533333333,-96.9807733333333,6.4,7.4,164,993.13,-6.4,99,0.79,0.0,1021.80,360.0
2019-03-17 03:50,50.6304533333333,-96.98077,6.6,7.4,160,993.06,-6.6,99,0.79,0.0,1021.74,360.0
2019-03-17 04:00,50.630455,-96.98077,6.2,7.3,168,992.97,-6.7,99,0.79,0.0,1021.66,318.7
2019-03-17 04:10,50.63046,-96.980765,5.4,6.2,171,992.95,-6.8,99,0.79,0.0,1021.63,318.7
2019-03-17 04:20,50.630455,-96.9807783333333,4.8,6.3,183,992.98,-6.8,99,0.79,0.0,1021.68,318.7
2019-03-17 04:30,50.63045,-96.98076,2.9,4.8,155,993.09,-6.6,99,0.79,0.0,1021.78,318.7
2019-03-17 04:40,50.63045,-96.9807633333333,3.1,3.8,115,993.12,-6.7,99,0.78,0.0,1021.81,318.7
2019-03-17 04:50,50.6304516666667,-96.980765,3.4,4.5,149,993.15,-7.4,99,0.78,0.0,1021.88,318.7
2019-03-17 05:00,50.6304633333333,-96.980775,3.3,4.5,162,993.15,-8.2,99,0.78,0.0,1021.93,345.5
2019-03-17 05:10,50.630455,-96.9807733333333,3.2,4.2,162,993.25,-8.3,99,0.78,0.0,1022.04,345.5
2019-03-17 05:20,50.630455,-96.9807683333333,2.4,2.9,147,993.36,-8.3,99,0.78,0.0,1022.16,345.5
2019-03-17 05:30,50.6304566666667,-96.9807733333333,2.3,3.0,165,993.35,-8.6,99,0.77,0.0,1022.17,345.5
2019-03-17 05:40,50.6304566666667,-96.980775,2.4,3.0,169,993.28,-8.8,100,0.77,0.0,1022.12,345.5
2019-03-17 05:50,50.6304566666667,-96.980775,3.4,4.2,173,993.24,-9.0,100,0.77,0.0,1022.09,345.5
2019-03-17 06:00,50.630455,-96.980775,2.7,4.0,163,993.28,-9.1,100,0.77,0.0,1022.15,270.0
2019-03-17 06:10,50.63045,-96.9807716666667,2.5,2.9,177,993.26,-9.2,100,0.78,0.0,1022.14,270.0
2019-03-17 06:20,50.6304466666667,-96.9807483333333,2.5,3.3,190,993.34,-9.1,100,0.78,0.0,1022.20,270.0
2019-03-17 06:30,50.630445,-96.9807583333333,1.9,2.4,211,993.36,-8.8,100,0.78,0.0,1022.21,270.0
2019-03-17 06:40,50.630445,-96.9807583333333,1.6,2.2,202,993.35,-8.8,100,0.78,0.0,1022.24,270.0
2019-03-17 06:50,50.630445,-96.9807616666667,1.3,1.7,217,993.31,-8.7,100,0.78,0.0,1022.23,270.0
2019-03-17 07:00,50.6304366666667,-96.98077,1.7,2.7,221,993.32,-8.5,100,0.78,0.0,1022.24,161.1
2019-03-17 07:10,50.6304433333333,-96.9807733333333,2.2,2.7,229,993.37,-8.3,100,0.79,0.0,1022.28,161.1
2019-03-17 07:20,50.6304433333333,-96.9807733333333,1.8,2.7,220,993.47,-8.3,100,0.79,0.0,1022.40,161.1
2019-03-17 07:30,50.6304433333333,-96.9807716666667,2.1,2.8,227,993.55,-8.4,100,0.79,0.0,1022.49,161.1
2019-03-17 07:40,50.6304583333333,-96.9807766666667,2.6,3.2,209,993.55,-8.5,100,0.78,0.0,1022.51,161.1
2019-03-17 07:50,50.63046,-96.9807683333333,2.3,3.0,203,993.53,-8.5,100,0.78,0.0,1022.50,161.1
2019-03-17 08:00,50.6304566666667,-96.9807716666667,3.4,4.0,211,993.55,-8.7,100,0.78,0.0,1022.53,360.0
2019-03-17 08:10,50.6304516666667,-96.9807716666667,2.3,3.5,211,993.54,-8.7,100,0.78,0.0,1022.52,360.0
2019-03-17 08:20,50.6304483333333,-96.9807733333333,2.1,2.5,198,993.47,-8.9,100,0.78,0.0,1022.45,360.0
2019-03-17 08:30,50.630445,-96.9807733333333,2.0,2.4,197,993.47,-9.1,100,0.78,0.0,1022.45,360.0
2019-03-17 08:40,50.630445,-96.98077,2.7,3.5,208,993.55,-9.4,100,0.78,0.0,1022.55,360.0
2019-03-17 08:50,50.63043,-96.98077,3.1,3.8,228,993.65,-9.5,100,0.78,0.0,1022.64,360.0
2019-03-17 09:00,50.6304416666667,-96.98075,3.4,4.9,236,993.66,-9.3,100,0.78,0.0,1022.63,130.6
2019-03-17 09:10,50.63045,-96.9807516666667,4.5,5.6,243,993.70,-9.7,100,0.77,0.0,1022.69,130.6
2019-03-17 09:20,50.6304433333333,-96.98076,4.0,4.8,247,993.70,-10.1,99,0.77,0.0,1022.72,130.6
2019-03-17 09:30,50.6304416666667,-96.9807633333333,2.8,4.1,254,993.68,-10.0,99,0.78,0.0,1022.70,130.6
2019-03-17 09:40,50.6304316666667,-96.9807616666667,2.2,3.9,254,993.68,-10.0,99,0.78,0.0,1022.70,130.6
2019-03-17 09:50,50.630435,-96.9807666666667,3.3,5.0,249,993.76,-9.9,99,0.78,0.0,1022.78,130.6
2019-03-17 10:00,50.6304366666667,-96.9807683333333,3.0,5.8,254,993.80,-10.0,99,0.78,0.0,1022.84,0.0
2019-03-17 10:10,50.6304366666667,-96.9807666666667,2.0,3.9,246,993.81,-10.1,99,0.78,0.0,1022.87,0.0
2019-03-17 10:20,50.6304483333333,-96.9807866666667,1.9,3.4,226,993.84,-10.7,99,0.78,0.0,1022.93,0.0
2019-03-17 10:30,50.6304383333333,-96.98075,1.7,2.5,207,993.88,-11.6,99,0.78,0.0,1023.05,0.0
2019-03-17 10:40,50.6304366666667,-96.9807666666667,2.0,2.9,222,993.94,-12.2,99,0.78,0.0,1023.15,0.0
2019-03-17 10:50,50.6304383333333,-96.9807666666667,1.1,1.8,245,993.97,-12.0,99,0.77,0.0,1023.16,0.0
2019-03-17 11:00,50.6304383333333,-96.980765,1.8,2.6,230,994.06,-12.7,99,0.77,0.0,1023.31,138.7
2019-03-17 11:10,50.6304383333333,-96.9807633333333,2.3,4.3,213,994.10,-13.6,99,0.77,0.0,1023.42,138.7
2019-03-17 11:20,50.6304383333333,-96.980765,2.8,4.4,238,994.19,-12.8,99,0.77,0.0,1023.46,138.7
2019-03-17 11:30,50.6304366666667,-96.9807666666667,1.5,3.1,222,994.25,-12.2,99,0.77,0.0,1023.49,138.7
2019-03-17 11:40,50.6304366666667,-96.980765,2.3,3.2,159,994.33,-13.4,99,0.77,0.0,1023.64,138.7
2019-03-17 11:50,50.6304383333333,-96.980765,2.9,3.6,171,994.48,-14.6,99,0.76,0.0,1023.87,138.7
2019-03-17 12:00,50.6304383333333,-96.9807816666667,2.2,3.0,214,994.63,-13.7,99,0.75,0.0,1023.98,270.0
2019-03-17 12:10,50.63043,-96.980775,1.8,3.0,177,994.62,-12.9,99,0.75,0.0,1023.96,270.0
2019-03-17 12:20,50.6304316666667,-96.9807733333333,2.1,2.9,174,994.69,-13.8,99,0.74,0.0,1024.13,270.0
2019-03-17 12:30,50.6304316666667,-96.9807716666667,3.2,3.8,171,994.72,-14.9,98,0.74,0.0,1024.27,270.0
2019-03-17 12:40,50.6304316666667,-96.98077,2.8,3.4,209,994.89,-14.8,99,0.74,0.0,1024.42,270.0
2019-03-17 12:50,50.630435,-96.9807683333333,2.6,3.4,224,994.99,-13.2,99,0.74,0.0,1024.47,270.0
2019-03-17 13:00,50.630435,-96.9807683333333,1.6,2.7,223,995.09,-12.9,99,0.74,0.0,1024.60,0.0
2019-03-17 13:10,50.6304333333333,-96.9807683333333,1.7,2.9,205,995.14,-14.0,99,0.74,0.0,1024.67,0.0
2019-03-17 13:20,50.6304233333333,-96.9807683333333,1.5,2.6,168,995.14,-14.3,99,0.74,0.0,1024.65,0.0
2019-03-17 13:30,50.6304333333333,-96.9807633333333,2.8,3.8,152,995.25,-14.0,99,0.75,0.0,1024.83,0.0
2019-03-17 13:40,50.630435,-96.98076,2.1,3.4,164,995.34,-14.1,99,0.75,0.0,1025.00,0.0
2019-03-17 13:50,50.6304383333333,-96.9807633333333,2.7,3.6,137,995.37,-13.7,99,0.75,0.0,1024.95,0.0
2019-03-17 14:00,50.6304366666667,-96.980765,2.6,3.8,152,995.47,-13.6,99,0.75,0.0,1025.00,360.0
2019-03-17 14:10,50.6304366666667,-96.980765,2.8,3.6,159,995.50,-13.2,99,0.75,0.0,1025.05,360.0
2019-03-17 14:20,50.630435,-96.980765,3.0,3.6,175,995.60,-12.7,99,0.74,0.0,1025.20,360.0
2019-03-17 14:30,50.630435,-96.9807633333333,2.6,3.2,160,995.64,-12.3,99,0.73,0.0,1025.20,360.0
2019-03-17 14:40,50.630435,-96.9807666666667,2.3,2.9,170,995.72,-12.0,99,0.72,0.0,1025.17,360.0
2019-03-17 14:50,50.630435,-96.9807666666667,2.6,3.0,157,995.74,-11.4,99,0.72,0.0,1025.15,360.0
2019-03-17 15:00,50.630435,-96.9807666666667,3.8,5.0,147,995.80,-10.9,99,0.72,0.0,1025.24,113.6
2019-03-17 15:10,50.630435,-96.9807666666667,3.6,4.4,156,995.89,-10.4,99,0.72,0.0,1025.32,113.6
2019-03-17 15:20,50.630435,-96.9807666666667,3.9,4.4,162,996.03,-9.8,99,0.72,0.0,1025.42,113.6
2019-03-17 15:30,50.6304366666667,-96.9807666666667,3.7,4.3,157,996.15,-9.2,99,0.72,0.0,1025.52,113.6
2019-03-17 15:40,50.6304366666667,-96.9807683333333,3.8,5.0,140,996.18,-8.8,99,0.72,0.0,1025.50,113.6
2019-03-17 15:50,50.6304366666667,-96.9807683333333,4.4,5.0,136,996.17,-8.3,99,0.72,0.0,1025.45,113.6
2019-03-17 16:00,50.6304383333333,-96.9807683333333,4.7,5.5,142,996.23,-7.9,100,0.73,0.0,1025.47,360.0
2019-03-17 16:10,50.6304383333333,-96.9807683333333,4.8,5.5,149,996.37,-7.6,100,0.74,0.0,1025.57,360.0
2019-03-17 16:20,50.6304383333333,-96.9807683333333,4.6,5.2,145,996.43,-7.2,100,0.74,0.0,1025.59,360.0
2019-03-17 16:30,50.6304383333333,-96.9807683333333,4.3,5.2,138,996.58,-6.9,100,0.74,0.0,1025.70,360.0
2019-03-17 16:40,50.6304383333333,-96.98077,5.5,6.6,123,996.52,-5.8,99,0.74,0.0,1025.56,360.0
2019-03-17 16:50,50.6304383333333,-96.98077,4.2,4.9,141,996.67,-6.2,99,0.75,0.0,1025.70,360.0
2019-03-17 17:00,50.63044,-96.98077,4.3,5.2,138,996.69,-5.9,99,0.75,0.0,1025.68,360.0
2019-03-17 17:10,50.63044,-96.98077,4.0,5.0,133,996.75,-5.2,99,0.75,0.0,1025.67,360.0
2019-03-17 17:20,50.63044,-96.98077,4.5,5.7,133,996.73,-4.8,99,0.75,0.0,1025.60,360.0
2019-03-17 17:30,50.63044,-96.98077,4.8,6.0,134,996.75,-4.7,100,0.75,0.0,1025.59,360.0
2019-03-17 17:40,50.63044,-96.98077,5.0,5.8,132,996.79,-4.5,100,0.75,0.0,1025.59,360.0
2019-03-17 17:50,50.6304266666667,-96.9807566666667,5.1,6.1,138,996.79,-4.7,100,0.75,0.0,1025.58,360.0
2019-03-17 18:00,50.6304333333333,-96.98076,4.3,5.9,139,996.88,-4.0,100,0.75,0.0,1025.62,131.7
2019-03-17 18:10,50.6304316666667,-96.9807733333333,4.5,5.6,133,996.94,-3.7,100,0.75,0.0,1025.64,131.7
2019-03-17 18:20,50.63044,-96.9807683333333,3.2,5.0,141,996.97,-3.0,100,0.75,0.0,1025.62,131.7
2019-03-17 18:30,50.63044,-96.9807683333333,2.8,4.8,147,996.96,-1.9,100,0.75,0.0,1025.49,131.7
2019-03-17 18:40,50.63044,-96.9807716666667,3.2,5.5,128,997.00,-0.3,99,0.76,0.0,1025.46,131.7
2019-03-17 18:50,50.6304383333333,-96.9807716666667,4.6,6.5,138,996.98,-1.2,99,0.76,0.0,1025.48,131.7
2019-03-17 19:00,50.6304383333333,-96.98077,5.3,6.4,133,996.93,-1.9,100,0.76,0.0,1025.42,0.0
2019-03-17 19:10,50.6304383333333,-96.9807716666667,5.4,6.6,134,996.97,-2.0,100,0.77,0.0,1025.45,0.0
2019-03-17 19:20,50.6304383333333,-96.9807716666667,5.5,6.7,136,996.96,-1.8,100,0.78,0.0,1025.42,0.0
2019-03-17 19:30,50.6304383333333,-96.9807733333333,5.2,6.3,134,996.97,-1.6,100,0.78,0.0,1025.41,0.0
2019-03-17 19:40,50.6304516666667,-96.980775,6.3,7.3,141,996.89,-1.6,100,0.79,0.0,1025.34,0.0
2019-03-17 19:50,50.6304466666667,-96.9807683333333,6.7,7.6,148,996.87,-1.7,100,0.79,0.0,1025.28,0.0
2019-03-17 20:00,50.6304433333333,-96.9807683333333,6.6,7.8,138,996.91,-1.7,100,0.79,0.0,1025.31,90.0
2019-03-17 20:10,50.6304416666667,-96.9807716666667,7.0,9.1,136,996.81,-1.5,100,0.79,0.0,1025.17,90.0
2019-03-17 20:20,50.6304416666667,-96.9807716666667,7.9,9.1,136,996.75,-1.7,100,0.80,0.0,1025.05,90.0
2019-03-17 20:30,50.63044,-96.9807683333333,7.7,8.7,127,996.80,-1.2,100,0.81,0.0,1024.99,90.0
2019-03-17 20:40,50.63044,-96.9807683333333,7.1,8.5,123,996.85,-1.1,100,0.81,0.0,1025.09,90.0
2019-03-17 20:50,50.6304416666667,-96.98077,5.1,7.3,111,997.01,-0.5,99,0.82,0.0,1025.25,90.0
2019-03-17 21:00,50.63044,-96.98077,4.2,5.4,89,997.09,0.6,96,0.82,0.0,1025.29,345.5
2019-03-17 21:10,50.63044,-96.9807683333333,3.9,5.3,89,997.12,1.1,93,0.83,0.0,1025.28,345.5
2019-03-17 21:20,50.63044,-96.9807683333333,3.8,5.3,84,997.19,1.8,87,0.83,0.0,1025.31,345.5
2019-03-17 21:30,50.6304416666667,-96.98077,3.7,5.1,82,997.25,2.0,85,0.83,0.0,1025.36,345.5
2019-03-17 21:40,50.6304416666667,-96.98077,4.2,5.3,74,997.34,1.6,88,0.83,0.0,1025.48,345.5
2019-03-17 21:50,50.63044,-96.98077,3.5,5.0,85,997.44,1.5,89,0.84,0.0,1025.59,345.5
2019-03-17 22:00,50.63044,-96.9807683333333,4.0,5.2,132,997.40,0.3,96,0.85,0.0,1025.60,0.0
2019-03-17 22:10,50.63043,-96.9807666666667,3.7,4.4,143,997.39,-0.9,99,0.85,0.0,1025.66,0.0
2019-03-17 22:20,50.63044,-96.98077,2.6,3.7,129,997.49,-0.3,99,0.85,0.0,1025.70,0.0
2019-03-17 22:30,50.63044,-96.9807683333333,3.1,4.1,109,997.52,0.9,99,0.85,0.0,1025.66,0.0
2019-03-17 22:40,50.6304383333333,-96.98077,3.5,4.5,110,997.58,0.8,99,0.86,0.0,1025.70,0.0
2019-03-17 22:50,50.63044,-96.9807683333333,3.8,4.6,112,997.67,-0.2,100,0.86,0.0,1025.79,0.0
2019-03-17 23:00,50.63044,-96.9807683333333,4.2,4.9,112,997.62,-0.5,100,0.87,0.0,1025.73,90.0
2019-03-17 23:10,50.63044,-96.9807666666667,4.1,5.1,144,997.64,-1.6,100,0.87,0.0,1025.77,90.0
2019-03-17 23:20,50.63044,-96.9807683333333,4.7,5.2,153,997.65,-2.3,100,0.87,0.0,1025.80,90.0
2019-03-17 23:30,50.63044,-96.98077,4.4,5.5,160,997.75,-2.8,100,0.87,0.0,1025.95,90.0
2019-03-17 23:40,50.6304416666667,-96.9807683333333,4.4,5.4,164,997.78,-2.7,100,0.87,0.0,1025.99,90.0
2019-03-17 23:50,50.63044,-96.9807666666667,2.8,7.2,102,997.91,-2.6,100,0.88,0.0,1026.18,90.0
